Wind_Speed
13 12 10 8 7 5 4 3 2 3 5 7 7 7 7 6 7 9 9 9 10 10 11 10 10 10 9 9 8 8 7 7 7 7 7 7 7 6 6 6 7 7 8 9
14 12 11 10 9 6 6 5 4 3 5 7 8 8 10 7 7 8 8 9 9 9 10 10 10 9 9 8 8 8 7 6 7 7 7 8 8 8 8 8 8 8 9 10
14 12 13 13 10 8 8 7 6 5 7 8 9 9 11 10 9 9 8 7 7 8 9 10 10 9 9 9 8 8 7 7 7 8 8 9 9 9 9 9 9 10 10 11
15 14 15 14 12 10 9 9 8 7 8 9 10 11 11 10 10 10 8 6 6 7 8 9 10 10 10 9 8 8 8 8 8 9 9 9 9 9 9 9 10 11 11 11
16 16 16 15 12 12 10 9 9 9 10 11 11 12 11 11 10 10 10 8 7 7 8 9 9 11 11 10 9 9 9 10 9 10 10 10 10 10 10 11 11 12 13 12
17 18 18 16 14 13 12 11 11 12 13 13 12 13 12 12 12 11 11 9 8 8 8 9 8 9 11 10 10 9 10 11 11 10 11 10 10 11 11 12 12 12 12 12
17 19 18 16 16 16 15 14 13 14 15 15 13 14 14 13 13 12 12 10 10 9 9 11 10 10 11 11 12 11 10 10 11 11 11 10 11 11 12 13 13 13 14 15
18 17 17 16 16 17 17 17 16 16 16 16 16 16 14 14 15 14 13 11 10 11 10 12 12 12 11 11 12 11 12 12 13 13 12 12 12 13 12 13 14 14 15 16
18 17 18 19 17 17 17 19 18 18 18 19 17 16 15 15 15 14 13 11 11 12 12 13 13 13 12 13 12 11 12 12 13 14 14 14 14 14 14 15 15 16 16 17
19 19 18 18 19 19 19 20 20 21 20 20 19 18 17 15 15 15 15 15 13 13 14 14 14 13 13 14 14 13 13 13 14 14 15 16 16 16 16 16 16 17 18 18
21 21 20 20 21 21 21 21 22 22 22 23 22 19 18 19 17 16 16 17 17 16 17 16 16 15 15 15 16 16 16 15 15 16 16 16 17 17 17 18 18 19 20 20
22 24 24 24 22 22 23 23 23 24 24 25 24 23 21 19 20 19 18 19 18 17 18 18 17 17 16 17 17 17 17 18 18 18 18 18 19 19 19 19 20 20 21 21
22 24 24 23 24 24 24 24 25 25 26 26 24 24 23 22 22 22 21 21 19 19 19 19 18 18 17 17 18 18 18 20 20 20 20 20 21 21 21 21 22 22 23 23
25 24 24 24 23 24 25 25 24 25 25 26 25 24 23 23 23 22 21 22 21 20 20 20 19 19 18 18 19 19 19 20 21 21 21 21 21 21 22 23 24 24 24 24
26 26 25 26 26 25 25 25 24 25 26 26 25 25 24 24 25 24 22 21 21 19 21 22 21 20 20 20 21 22 21 22 23 23 23 23 23 23 24 25 25 25 25 26
28 29 29 28 27 26 26 26 25 25 26 27 27 26 25 24 24 24 23 22 22 21 22 22 23 21 20 21 22 23 23 24 24 24 24 24 25 26 26 26 27 28 28 27
30 29 30 29 28 28 27 26 25 26 26 27 27 26 25 24 25 23 23 23 22 21 23 24 24 23 23 23 24 24 26 25 25 25 25 25 26 27 28 28 28 28 28 28
30 30 30 29 28 29 26 25 24 25 26 27 27 27 26 25 23 23 24 24 25 25 25 24 23 23 25 26 26 26 26 26 26 26 26 26 27 28 29 29 29 29 29 29
27 27 27 28 29 28 27 26 25 25 26 28 28 28 26 26 27 26 25 26 26 26 27 26 25 25 25 26 27 28 28 28 27 27 28 28 28 29 30 30 30 30 30 30
26 27 27 27 28 29 27 27 28 28 29 29 28 27 27 26 27 27 27 26 27 28 27 27 27 27 27 28 28 29 28 29 29 28 29 29 29 30 30 30 31 31 31 31
26 27 27 28 28 28 27 27 28 30 30 29 28 28 28 28 28 28 28 27 27 28 28 29 28 28 29 30 30 30 29 30 29 30 30 30 30 30 30 30 31 31 31 31
25 26 27 27 29 28 28 28 29 28 28 29 29 28 28 28 29 29 29 29 29 28 29 30 30 30 30 31 30 30 30 30 30 30 31 31 31 31 31 30 31 30 31 31
27 27 27 28 28 28 27 28 28 28 28 29 29 28 28 28 29 30 30 29 29 28 29 30 30 30 30 31 30 30 30 30 31 31 31 32 31 31 31 30 30 30 31 31
27 27 28 28 28 28 27 26 26 27 26 27 27 27 27 28 29 29 29 29 29 28 28 30 30 30 30 31 30 30 31 30 30 31 31 31 32 31 31 31 31 31 31 31
29 28 28 28 28 27 27 26 26 26 24 24 24 25 27 28 30 30 31 30 29 29 29 29 30 30 31 31 30 30 30 30 30 30 31 31 31 31 30 31 31 31 31 31
30 30 30 29 29 28 28 27 26 25 25 26 25 26 27 28 29 29 29 29 30 31 31 30 30 31 30 30 31 31 30 30 31 31 30 31 31 30 30 30 31 31 30 31
Wind_Direction
212 209 202 208 215 207 213 221 257 337 336 333 336 343 347 352 0 2 3 15 19 20 20 18 15 15 14 12 13 12 13 12 8 1 360 356 348 343 339 331 320 311 308 307
214 213 206 211 218 223 232 232 238 286 292 303 314 316 331 335 335 341 351 358 10 15 13 11 9 8 7 6 6 5 3 0 353 349 347 343 335 327 324 326 319 308 305 301
222 215 211 211 221 225 229 233 244 267 281 287 301 307 313 315 318 321 328 333 357 1 0 359 355 352 352 352 355 357 352 347 343 338 334 328 324 326 326 323 320 310 306 304
224 220 220 218 224 225 230 237 253 260 267 277 289 300 304 307 311 312 315 320 335 339 344 343 344 341 340 339 341 342 337 333 331 326 320 326 324 322 318 317 315 313 307 303
229 225 226 226 228 231 232 240 243 250 263 272 283 293 301 302 307 311 314 312 321 333 333 329 332 335 331 332 333 334 330 324 323 322 319 317 318 313 313 311 311 312 310 305
231 229 231 230 231 233 230 233 236 246 256 261 273 282 288 294 304 307 307 306 305 327 334 327 326 332 325 328 325 321 324 321 319 319 318 316 315 314 314 314 311 309 307 305
229 227 232 235 236 237 236 238 241 244 251 260 267 275 280 289 298 304 304 300 302 316 325 323 321 322 318 321 321 314 316 317 318 319 318 314 313 313 313 314 313 307 304 303
233 227 228 232 242 244 241 243 245 249 256 262 265 267 275 290 297 302 302 302 302 308 313 318 317 316 313 316 318 313 311 313 314 309 310 312 310 310 310 311 312 310 306 304
236 232 229 231 235 239 240 240 245 253 259 263 265 265 267 285 290 298 302 303 299 305 305 310 311 310 308 315 313 312 309 306 308 307 307 310 308 306 307 308 308 308 308 307
240 240 232 232 233 235 239 243 244 249 257 261 265 267 270 280 287 296 299 300 301 302 305 311 309 304 307 310 310 304 303 304 306 302 302 305 304 302 303 304 304 305 305 305
243 245 240 235 234 236 238 243 245 249 256 260 265 268 274 280 283 286 291 294 298 300 304 303 302 305 305 305 303 304 305 302 302 300 301 302 304 302 303 303 303 303 303 304
242 245 242 240 241 241 239 244 248 250 252 255 261 266 272 276 279 281 284 289 292 294 299 301 299 298 299 302 301 303 303 304 303 302 303 303 302 301 300 300 301 302 301 303
243 244 245 242 242 242 245 247 250 253 254 256 259 266 269 272 277 282 283 284 287 288 292 296 295 293 297 301 301 300 299 301 303 302 301 300 300 299 299 298 298 298 298 300
244 246 247 244 244 245 245 247 248 252 253 255 258 264 268 272 275 277 280 282 282 281 287 291 293 292 296 300 302 299 297 298 299 299 297 297 297 298 298 299 301 300 299 300
244 244 245 245 247 249 247 250 251 252 254 258 263 265 268 272 274 274 278 283 283 287 288 289 292 293 294 297 299 299 296 295 295 296 295 293 296 299 299 299 300 300 298 299
244 245 245 246 246 249 252 253 255 255 255 259 264 267 269 272 275 276 280 283 284 289 293 293 297 292 293 295 296 296 295 295 295 295 294 294 297 299 299 299 298 298 299 300
245 245 245 246 245 249 251 253 255 256 255 259 263 267 268 271 275 278 279 281 285 286 293 294 294 293 291 292 295 295 297 296 295 294 295 295 295 297 298 298 298 299 299 301
245 246 248 249 247 248 251 251 254 254 255 258 262 265 269 272 274 277 277 280 283 286 292 295 295 293 292 293 294 295 296 296 296 295 294 294 295 296 297 297 297 298 299 300
245 247 249 250 249 248 249 251 254 256 256 258 261 264 269 272 273 275 276 280 284 290 292 292 294 294 294 294 294 294 295 295 295 295 294 293 295 295 295 295 295 296 298 300
243 244 247 250 251 250 250 253 255 257 258 260 262 265 269 272 274 275 277 283 288 289 289 289 292 294 294 294 294 294 294 294 294 293 293 293 295 295 295 294 294 295 297 298
240 242 245 247 250 251 252 251 252 254 257 260 262 265 268 272 273 275 277 282 285 287 289 289 291 293 294 294 294 293 292 292 293 293 294 293 293 294 293 293 294 295 296 298
241 243 245 246 249 251 254 253 255 258 259 261 262 263 266 271 273 275 277 281 282 284 287 289 290 292 293 295 293 292 291 291 292 293 293 293 292 293 294 295 294 295 297 298
241 244 247 248 251 252 255 256 257 260 263 264 264 263 266 270 274 276 279 281 281 283 287 288 290 292 294 295 294 292 291 290 291 293 293 293 292 292 293 294 294 294 296 298
242 244 248 249 250 252 256 260 262 263 265 268 268 268 270 272 275 277 278 280 283 286 288 289 290 291 292 292 292 292 293 289 290 293 293 292 292 293 292 293 294 295 296 297
242 245 249 254 256 259 259 262 265 266 268 272 272 271 274 276 276 278 280 281 283 285 286 287 289 290 290 291 291 291 293 292 292 294 294 293 293 293 294 294 295 296 297 297
242 244 248 254 258 260 261 263 265 267 270 272 272 274 276 277 277 279 279 280 282 284 285 285 286 288 289 289 290 291 293 293 294 294 295 295 295 295 296 296 296 297 299 300
Height
5919 5921 5922 5923 5923 5924 5923 5923 5922 5922 5921 5921 5921 5920 5920 5919 5917 5917 5916 5915 5913 5912 5910 5908 5907 5905 5904 5902 5902 5900 5899 5898 5897 5896 5895 5894 5893 5893 5892 5891 5890 5889 5887 5886
5917 5918 5920 5920 5921 5921 5921 5921 5921 5921 5921 5921 5919 5919 5918 5918 5917 5916 5915 5914 5912 5911 5910 5909 5907 5905 5903 5902 5901 5900 5899 5898 5897 5895 5894 5893 5892 5891 5890 5889 5888 5886 5885 5884
5914 5917 5917 5918 5918 5919 5919 5919 5919 5919 5919 5919 5918 5917 5917 5916 5916 5916 5914 5913 5911 5910 5909 5908 5907 5905 5903 5902 5900 5899 5898 5896 5895 5894 5893 5891 5890 5888 5888 5886 5885 5884 5882 5881
5911 5913 5913 5914 5915 5916 5916 5917 5916 5917 5917 5917 5918 5917 5915 5915 5914 5913 5912 5912 5911 5909 5908 5907 5905 5904 5902 5901 5899 5898 5896 5895 5893 5892 5891 5889 5888 5886 5885 5884 5883 5881 5880 5878
5907 5909 5910 5911 5912 5913 5914 5914 5914 5914 5914 5915 5915 5915 5915 5913 5913 5912 5911 5910 5909 5908 5906 5905 5904 5902 5901 5899 5897 5896 5894 5893 5891 5890 5888 5887 5886 5884 5883 5882 5880 5878 5877 5875
5904 5905 5906 5908 5909 5911 5911 5912 5912 5912 5912 5912 5913 5912 5912 5911 5910 5909 5908 5907 5906 5905 5904 5903 5901 5900 5898 5896 5895 5893 5891 5890 5889 5888 5886 5885 5883 5882 5880 5879 5877 5875 5873 5872
5899 5901 5902 5904 5905 5907 5908 5909 5909 5909 5909 5909 5909 5908 5909 5908 5907 5906 5905 5904 5903 5902 5901 5900 5898 5897 5895 5894 5892 5890 5889 5888 5887 5885 5884 5882 5881 5879 5877 5876 5874 5872 5870 5868
5895 5897 5898 5899 5901 5902 5903 5904 5905 5905 5905 5905 5905 5904 5905 5903 5903 5902 5902 5901 5900 5900 5898 5897 5895 5894 5892 5891 5890 5888 5886 5885 5884 5882 5881 5879 5877 5876 5874 5873 5871 5869 5867 5865
5890 5893 5895 5895 5897 5898 5899 5900 5901 5901 5900 5900 5900 5900 5900 5899 5899 5899 5898 5897 5897 5896 5895 5894 5892 5891 5889 5888 5887 5885 5884 5882 5881 5879 5877 5875 5874 5872 5871 5869 5867 5866 5863 5861
5885 5887 5890 5891 5892 5893 5894 5896 5896 5896 5896 5895 5895 5895 5896 5895 5895 5896 5895 5894 5893 5892 5891 5890 5889 5888 5887 5885 5883 5882 5880 5878 5876 5874 5873 5872 5870 5869 5867 5865 5863 5862 5859 5857
5880 5882 5884 5885 5886 5888 5889 5890 5890 5891 5891 5891 5890 5892 5892 5891 5892 5891 5891 5889 5887 5887 5886 5885 5885 5883 5882 5881 5879 5878 5876 5874 5872 5871 5869 5867 5865 5864 5863 5861 5859 5857 5854 5852
5874 5876 5878 5880 5881 5883 5884 5885 5885 5886 5886 5886 5885 5888 5887 5886 5886 5886 5886 5885 5883 5883 5882 5882 5880 5878 5877 5875 5874 5873 5872 5870 5868 5866 5863 5862 5860 5859 5857 5856 5853 5851 5849 5847
5868 5870 5872 5874 5877 5878 5878 5879 5880 5881 5881 5880 5880 5883 5882 5882 5881 5881 5881 5880 5879 5879 5878 5878 5876 5874 5872 5871 5869 5868 5867 5865 5864 5862 5860 5857 5855 5854 5852 5850 5848 5846 5843 5840
5863 5864 5866 5868 5870 5871 5872 5873 5874 5875 5874 5874 5875 5876 5876 5876 5876 5876 5875 5875 5875 5874 5874 5873 5871 5869 5868 5866 5865 5863 5862 5860 5859 5857 5854 5852 5850 5848 5847 5844 5842 5840 5837 5834
5857 5858 5860 5862 5864 5865 5866 5867 5868 5869 5869 5869 5870 5870 5871 5871 5870 5870 5870 5870 5870 5869 5868 5867 5866 5864 5863 5861 5860 5859 5857 5855 5853 5851 5848 5846 5844 5842 5840 5838 5836 5833 5831 5828
5851 5852 5853 5856 5858 5859 5860 5861 5862 5863 5863 5863 5864 5865 5865 5865 5865 5864 5864 5864 5863 5863 5862 5861 5860 5858 5857 5856 5855 5853 5851 5849 5847 5845 5843 5840 5838 5836 5834 5832 5829 5827 5824 5821
5844 5845 5847 5850 5852 5853 5854 5856 5856 5857 5857 5857 5857 5859 5858 5859 5859 5859 5859 5859 5857 5857 5857 5856 5854 5852 5851 5850 5848 5847 5845 5842 5841 5838 5836 5834 5832 5829 5827 5825 5822 5819 5817 5814
5838 5840 5841 5843 5846 5846 5850 5849 5849 5850 5850 5851 5851 5852 5852 5853 5853 5853 5854 5853 5852 5852 5851 5849 5848 5846 5845 5844 5842 5839 5838 5835 5833 5831 5829 5827 5824 5822 5820 5817 5815 5812 5809 5806
5832 5833 5834 5836 5837 5839 5842 5842 5842 5843 5844 5844 5845 5845 5846 5846 5847 5847 5848 5847 5846 5845 5844 5842 5841 5839 5837 5836 5834 5832 5830 5828 5826 5824 5822 5819 5817 5814 5812 5809 5807 5804 5801 5798
5825 5826 5828 5829 5830 5832 5835 5836 5836 5838 5837 5838 5838 5839 5839 5839 5840 5841 5840 5840 5839 5838 5837 5835 5833 5832 5830 5828 5826 5824 5822 5820 5818 5816 5814 5811 5809 5806 5804 5801 5799 5796 5793 5790
5817 5818 5820 5822 5822 5824 5827 5828 5830 5831 5831 5831 5831 5832 5832 5833 5834 5834 5833 5832 5832 5831 5829 5827 5825 5824 5822 5820 5818 5816 5814 5812 5810 5808 5805 5803 5801 5798 5795 5792 5790 5787 5784 5781
5809 5811 5812 5814 5815 5819 5820 5821 5822 5822 5823 5824 5825 5825 5825 5826 5826 5825 5825 5825 5824 5823 5821 5819 5818 5816 5815 5812 5810 5808 5807 5804 5802 5800 5797 5794 5792 5789 5786 5784 5781 5779 5776 5773
5802 5804 5805 5808 5810 5811 5812 5813 5814 5815 5816 5817 5817 5817 5818 5818 5818 5818 5818 5817 5816 5814 5813 5812 5810 5809 5807 5804 5802 5800 5798 5796 5794 5791 5789 5786 5783 5781 5778 5776 5773 5770 5767 5764
5795 5797 5798 5800 5801 5802 5804 5806 5807 5808 5809 5809 5810 5811 5811 5811 5811 5811 5810 5809 5808 5807 5806 5804 5802 5800 5798 5796 5794 5792 5789 5787 5785 5782 5780 5777 5775 5772 5770 5767 5764 5761 5758 5755
5788 5790 5791 5793 5794 5796 5797 5799 5800 5800 5801 5801 5802 5803 5804 5804 5803 5803 5802 5801 5800 5799 5798 5795 5794 5792 5790 5788 5786 5783 5781 5779 5776 5774 5771 5769 5766 5764 5761 5758 5756 5753 5750 5746
5781 5783 5784 5786 5787 5788 5790 5791 5792 5793 5793 5794 5795 5796 5796 5795 5795 5794 5793 5792 5791 5790 5789 5787 5785 5783 5781 5779 5777 5775 5772 5770 5768 5765 5763 5760 5758 5755 5752 5750 5747 5744 5741 5738